• Join FlightAware (Why Join?)
  • Login
  • US Flag 
03:22AM EST


 

Airport Tracker/Info


-or-


 

Live Flight TrackerFlight Track Log ✈ SKW5510 ✈ 22-Apr-2013 ✈ KTUL - KORD

Flight Track Log - Related Links

Times and Time Zones

All times are in EDT time to prevent confusion due to time zone crossing. See the SKW5510 flight status page for this flight to view local times or setup timezone preferences in your user account.

Time Position Orientation Groundspeed Altitude Reporting Facility
EDT Latitude Longitude Course Direction KTS MPH feet Rate Location/Type
06:52PM 36.1956 -95.8658 60° Northeast 148 170 1,200  Level Kansas City Center
06:53PM 36.2119 -95.8144 68° East 203 234 2,800 2,139 Climbing Kansas City Center
06:54PM 36.2583 -95.7436 51° Northeast 288 331 5,300 2,346 Climbing Kansas City Center
06:55PM 36.4081 -95.4299 64° Northeast  Level FlightAware Approximate
06:55PM 36.2806 -95.6303 76° East 293 337 8,000  Level Kansas City Center
06:56PM 36.4563 -95.3092 64° Northeast  Level FlightAware Approximate
06:56PM 36.2872 -95.5222 86° East 313 360 10,900  Level Kansas City Center
06:57PM 36.5148 -95.1976 60° Northeast  Level FlightAware Approximate
06:57PM 36.3469 -95.4047 58° Northeast 335 386 13,500  Level Kansas City Center
06:58PM 36.4014 -95.2958 58° Northeast 355 409 15,700 2,000 Climbing Kansas City Center
06:59PM 36.4567 -95.1869 58° Northeast 369 425 17,600 1,902 Climbing Kansas City Center
07:00PM 36.5083 -95.0828 58° Northeast 379 436 19,600 1,839 Climbing Kansas City Center
07:01PM 36.5656 -94.9664 59° Northeast 386 444 21,400 1,839 Climbing Kansas City Center
07:02PM 36.6342 -94.8272 58° Northeast 392 451 23,400 1,258 Climbing Kansas City Center
07:03PM 36.6936 -94.7078 58° Northeast 397 457 24,000 639 Climbing Kansas City Center
07:04PM 36.7569 -94.5803 58° Northeast 415 478 24,700 624 Climbing Kansas City Center
07:05PM 36.8222 -94.4472 58° Northeast 433 498 25,300 576 Climbing Kansas City Center
07:06PM 36.8872 -94.3131 59° Northeast 446 513 25,900 590 Climbing Kansas City Center
07:07PM 36.9547 -94.1758 58° Northeast 458 527 26,500 576 Climbing Kansas City Center
07:08PM 37.0219 -94.0364 59° Northeast 466 536 27,100 624 Climbing Kansas City Center
07:09PM 37.1039 -93.8669 59° Northeast 473 544 27,800 645 Climbing Kansas City Center
07:10PM 37.1603 -93.7450 60° Northeast 474 545 28,400 836 Climbing Kansas City Center
07:11PM 37.2417 -93.5767 59° Northeast 471 542 29,500 1,008 Climbing Kansas City Center
07:12PM 37.3081 -93.4369 59° Northeast 467 537 30,500 871 Climbing Kansas City Center
07:13PM 37.3847 -93.3122 52° Northeast 463 533 31,300 836 Climbing Kansas City Center
07:14PM 37.4783 -93.2244 37° Northeast 427 491 32,200 816 Climbing Kansas City Center
07:15PM 37.5725 -93.1356 37° Northeast 420 483 33,000 384 Climbing Kansas City Center
07:16PM 37.6711 -93.0461 36° Northeast 429 494 33,000  Level Kansas City Center
07:17PM 37.7711 -92.9511 37° Northeast 441 507 33,000  Level Kansas City Center
07:18PM 37.8736 -92.8550 36° Northeast 450 518 33,000  Level Kansas City Center
07:19PM 37.9786 -92.7569 36° Northeast 458 527 33,000  Level Kansas City Center
07:21PM 38.0872 -92.6553 36° Northeast 467 537 33,000  Level Kansas City Center
07:22PM 38.2131 -92.5364 37° Northeast 468 539 33,000  Level Kansas City Center
07:23PM 38.3192 -92.4364 36° Northeast 468 539 33,000  Level Kansas City Center
07:24PM 38.4250 -92.3336 37° Northeast 470 541 33,000  Level Kansas City Center
07:25PM 38.5319 -92.2322 37° Northeast 475 547 33,000  Level Kansas City Center
07:26PM 38.6386 -92.1292 37° Northeast 478 550 33,000  Level Kansas City Center
07:27PM 38.7450 -92.0258 37° Northeast 478 550 33,000  Level Kansas City Center
07:28PM 38.8533 -91.9214 37° Northeast 483 556 33,000  Level Kansas City Center
07:29PM 38.9617 -91.8169 37° Northeast 484 557 33,000  Level Kansas City Center
07:30PM 39.0694 -91.7119 37° Northeast 485 558 33,000  Level Kansas City Center
07:31PM 39.1936 -91.5903 37° Northeast 486 559 33,000  Level Kansas City Center
07:32PM 39.3031 -91.4847 37° Northeast 487 560 33,000  Level Kansas City Center
07:33PM 39.4097 -91.3778 38° Northeast 487 560 33,000  Level Kansas City Center
07:34PM 39.5169 -91.2725 37° Northeast 485 558 33,000  Level Kansas City Center
07:35PM 39.6236 -91.1658 38° Northeast 484 557 33,000  Level Kansas City Center
07:36PM 39.7306 -91.0592 37° Northeast 484 557 33,000  Level Kansas City Center
07:37PM 39.8503 -90.9383 38° Northeast 480 552 33,000  Level Kansas City Center
07:38PM 39.9564 -90.8322 37° Northeast 480 552 33,000  Level Kansas City Center
07:39PM 40.0619 -90.7250 38° Northeast 480 552 33,000  Level Kansas City Center
07:40PM 40.1683 -90.6169 38° Northeast 483 556 33,000  Level Kansas City Center
07:41PM 40.2633 -90.4903 45° Northeast 486 559 33,000  Level Kansas City Center
07:42PM 40.3756 -90.3333 47° Northeast 490 564 33,000  Level Chicago Center
07:43PM 40.4733 -90.1969 47° Northeast 489 563 33,000 -145 Level Chicago Center
07:44PM 40.5661 -90.0672 47° Northeast 490 564 32,700 -1,317 Descending Chicago Center
07:45PM 40.6792 -89.9094 47° Northeast 498 573 30,300 -2,146 Descending Chicago Center
07:46PM 40.7697 -89.7775 48° Northeast 489 563 28,300 -1,935 Descending Chicago Center
07:47PM 40.8614 -89.6519 46° Northeast 477 549 26,300 -1,984 Descending Chicago Center
07:48PM 40.9561 -89.5164 47° Northeast 469 540 24,200 -1,210 Descending Chicago Center
07:49PM 41.0433 -89.3919 47° Northeast 463 533 23,800 -1,171 Descending Chicago Center
07:51PM 41.1328 -89.2633 47° Northeast 474 545 21,800 -2,244 Descending Chicago Center
07:52PM 41.2311 -89.1219 47° Northeast 473 544 19,200 -2,419 Descending Chicago Center
07:53PM 41.3092 -89.0036 49° Northeast 436 502 16,800 -2,371 Descending Chicago Center
07:54PM 41.3897 -88.8875 47° Northeast 430 495 14,300 -2,419 Descending Chicago Center
07:55PM 41.4664 -88.7758 47° Northeast 413 475 11,800 -1,610 Descending Chicago Center
07:56PM 41.5272 -88.6694 53° Northeast 358 412 11,000 -390 Descending Chicago Center
07:57PM 41.5661 -88.5689 63° Northeast 307 353 11,000 -532 Level Chicago Center
07:58PM 41.6081 -88.4669 61° Northeast 315 362 9,900 -1,190 Descending Chicago Center
07:59PM 41.6711 -88.3606 52° Northeast 306 352 8,500 -1,190 Descending Chicago Center
08:00PM 41.7394 -88.3086 30° Northeast 308 354 7,400 -823 Descending Chicago Center
08:01PM 41.8178 -88.3100 359° North 282 325 6,800 -968 Descending Chicago Center
08:02PM 41.8925 -88.3139 358° North 250 288 5,400 -878 Descending Chicago Center
08:03PM 41.9444 -88.3256 351° North 224 258 5,000 -195 Descending Chicago Center
08:04PM 41.9681 -88.2703 60° Northeast 179 206 5,000  Level Chicago Center
08:05PM 41.9678 -88.2025 90° East 182 209 5,000 -387 Level Chicago Center
08:06PM 41.9689 -88.1361 89° East 179 206 4,200 -774 Descending Chicago Center